This demonstration page uses our WeatherBlox Daily Observations layout. Learn more.

Left ArrowRight Arrow

47.50024, -111.30081

Hourly Observations for November 25, 2015

Temp ( °F °C ) Dew Point ( °F °C ) Humidity (%) Winds ( mph kmh ) Pressure ( in mb ) Visibility ( mi km ) Precip ( " mm )
12:10 am 00:10 Cloudy with Light Snow 12 -11 9 -13 85 85 NNW 14 22 30.45 1031 1 2 0.00 0.00
12:24 am 00:24 Cloudy with Light Snow 12 -11 9 -13 85 85 NNW 13 20 30.45 1031 2 2 0.00 0.00
12:32 am 00:32 Cloudy with Light Snow 12 -11 9 -13 85 85 NNW 14 22 30.45 1031 2 3 0.00 0.00
12:43 am 00:43 Cloudy with Light Snow 12 -11.1 8 -13.3 84 84 NNW 17 28 30.45 1031 2 2 0.01 0.25
12:51 am 00:51 Cloudy with Light Snow 12 -11 9 -13 85 85 NNW 15 24 30.45 1031 1 2 0.02 0.51
12:53 am 00:53 Cloudy with Light Snow 12 -11.1 8 -13.3 84 84 N 15 24 30.37 1029 1 2 0.02 0.51
1:10 am 01:10 Mostly Cloudy with Light Snow 10 -12 9 -13 92 92 NNW 13 20 30.48 1032 1 2 0.00 0.00
1:26 am 01:26 Cloudy with Light Snow 10 -12 7 -14 85 85 N 17 28 30.48 1032 2 2 0.00 0.00
1:33 am 01:33 Cloudy with Light Snow 11 -11.7 7 -13.9 84 84 N 16 26 30.48 1032 2 2 0.01 0.25
1:53 am 01:53 Cloudy with Light Snow 11 -11.7 7 -13.9 84 84 N 12 19 30.39 1029 2 3 0.01 0.25
2:16 am 02:16 Mostly Cloudy with Light Snow 10 -12 7 -14 85 85 NNW 12 19 30.48 1032 1 2 0.00 0.00
2:34 am 02:34 Cloudy with Light Snow 10 -12 7 -14 85 85 NNW 14 22 30.50 1033 2 3 0.00 0.00
2:41 am 02:41 Cloudy with Light Snow 10 -12.2 6 -14.4 84 84 NNW 14 22 30.50 1033 2 3 0.01 0.25
2:45 am 02:45 Cloudy with Light Snow 10 -12.2 6 -14.4 84 84 NNW 13 20 30.50 1033 2 3 0.01 0.25
2:53 am 02:53 Cloudy with Light Snow 10 -12.2 6 -14.4 84 84 N 14 22 30.42 1030 2 3 0.02 0.51
3:10 am 03:10 Cloudy with Light Snow 9 -13 7 -14 92 92 NNW 12 19 30.50 1033 2 3 0.00 0.00
3:25 am 03:25 Cloudy with Light Snow 9 -12.8 6 -14.4 88 88 NNW 10 17 30.50 1033 1 2 0.00 0.03
3:35 am 03:35 Cloudy with Light Snow 9 -12.8 6 -14.4 88 88 NNW 10 17 30.50 1033 2 3 0.00 0.03
3:53 am 03:53 Cloudy with Light Snow 9 -12.8 5 -15 84 84 NNW 12 19 30.45 1031 5 8 0.00 0.03
4:06 am 04:06 Cloudy with Light Snow 9 -12.8 5 -15 84 84 NNW 10 17 30.56 1035 3 5 0.00 0.03
4:13 am 04:13 Cloudy with Light Snow 9 -12.8 5 -15 84 84 NNW 14 22 30.56 1035 3 4 0.00 0.03
4:19 am 04:19 Cloudy with Light Snow 9 -12.8 5 -15 84 84 NNW 14 22 30.56 1035 3 5 0.00 0.03
4:31 am 04:31 Cloudy with Light Snow 9 -12.8 5 -15 84 84 N 12 19 30.56 1035 4 6 0.00 0.03
4:53 am 04:53 Cloudy with Light Snow 8 -13.3 4 -15.6 83 83 N 9 15 30.45 1031 4 6 0.00 0.03
5:53 am 05:53 Cloudy 8 -13.3 4 -15.6 83 83 N 9 15 30.47 1032 8 13 0.00 0.03
6:24 am 06:24 Cloudy 9 -13 3 -16 78 78 N 8 13 30.59 1036 9 14 0.00 0.00
6:53 am 06:53 Cloudy 7 -13.9 3 -16.1 84 84 N 7 11 30.50 1033 8 13 0.00 0.00
7:27 am 07:27 Cloudy 5 -15 2 -16.7 87 87 NNW 3 6 30.62 1037 8 13 0.00 0.03
7:53 am 07:53 Cloudy 3 -16.1 0 -17.8 87 87 N 5 7 30.53 1034 9 14 0.00 0.03
8:21 am 08:21 Cloudy with Light Snow 4 -15.6 2 -16.7 91 91 Calm 30.68 1039 3 5 0.00 0.03
8:30 am 08:30 Cloudy with Light Snow 3 -16 1 -17 92 92 Calm 30.68 1039 3 4 0.00 0.00
8:40 am 08:40 Cloudy with Light Snow 3 -16 1 -17 92 92 Calm 30.68 1039 4 6 0.00 0.00
8:53 am 08:53 Mostly Cloudy with Mist and Fog 5 -15 3 -16.1 91 91 Calm 30.54 1034 5 8 0.00 0.03
9:10 am 09:10 Partly Cloudy 3 -16 1 -17 92 92 Calm 30.68 1039 8 13 0.00 0.00
9:36 am 09:36 Partly Cloudy 1 -17 0 -18 92 92 SW 3 6 30.68 1039 8 13 0.00 0.00
9:53 am 09:53 Mostly Sunny 2 -16.7 0 -17.8 91 91 WSW 3 6 30.56 1035 8 13 0.00 0.00
10:12 am 10:12 Sunny 1 -17 0 -18 92 92 Calm 30.68 1039 10 16 0.00 0.00
10:53 am 10:53 Sunny 7 -13.9 4 -15.6 87 87 Calm 30.55 1035 10 16 0.00 0.00
11:53 am 11:53 Sunny 9 -12.8 4 -15.6 80 80 SSW 3 6 30.54 1034 10 16 0.00 0.00
12:53 pm 12:53 Sunny 9 -12.8 4 -15.6 80 80 SW 8 13 30.52 1034 10 16 0.00 0.00
1:53 pm 13:53 Sunny 9 -12.8 4 -15.6 80 80 SW 8 13 30.50 1033 10 16 0.00 0.00
2:53 pm 14:53 Sunny 8 -13.3 3 -16.1 80 80 SW 7 11 30.50 1033 10 16 0.00 0.00
3:53 pm 15:53 Sunny 4 -15.6 -1 -18.3 80 80 SW 7 11 30.52 1033 10 16 0.00 0.00
4:53 pm 16:53 Clear -1 -18.3 -4 -20 87 87 SSW 8 13 30.55 1034 10 16 0.00 0.00
5:53 pm 17:53 Clear -3 -19.4 -6 -21.1 86 86 SSW 8 13 30.57 1035 10 16 0.00 0.00
6:53 pm 18:53 Clear -3 -19.4 -7 -21.7 82 82 SSW 10 17 30.58 1036 10 16 0.00 0.00
7:53 pm 19:53 Clear -2 -18.9 -6 -21.1 83 83 SSW 9 15 30.60 1036 10 16 0.00 0.00
8:53 pm 20:53 Clear 1 -17.2 -4 -20 79 79 SSW 14 22 30.59 1036 10 16 0.00 0.00
9:53 pm 21:53 Clear 2 -16.7 -3 -19.4 80 80 SSW 14 22 30.59 1036 10 16 0.00 0.00
10:53 pm 22:53 Clear -7 -21.7 -11 -23.9 82 82 WSW 6 9 30.60 1036 10 16 0.00 0.00
11:53 pm 23:53 Clear -1 -18.3 -7 -21.7 75 75 SW 9 15 30.59 1036 10 16 0.00 0.00

Powered by AerisWeather